{"data":{"norad_id":63571,"epoch":"2026-09-20T10:08:12.695424Z","epoch_age_seconds":162175,"freshness":"FRESH","line1":"1 63571U 25076C   26263.42236916  .00010202  00000+0  37963-3 0  9999","line2":"2 63571  43.0002 301.8287 0000892 276.0764  83.9986 15.27588294 81602","mean_motion":15.27588294,"eccentricity":8.92e-5,"inclination_deg":43.0002,"raan_deg":301.8287,"arg_perigee_deg":276.0764,"mean_anomaly_deg":83.9986,"bstar":0.00037963,"rev_number":8160,"period_min":94.266236894848,"perigee_km":482.41224534779,"apogee_km":483.63627651675,"semimajor_km":6861.1612609323,"source":"CELESTRAK","updated_at":"2026-09-21T09:00:35.045029Z"}}